Date String (YYYY-MM-DD hh:mm:ss) UTC,Instrument flags,Ambient pressure (hPa),Sample flow (lpm),Bypass flow (lpm),Sample temperature (°C),Ambient temperature (°C),ASC tube jacket temperature (°C),LED temperature (°C),Box temperature (°C),Sample RH (%),Span deviation,Mass concentration (μg/m³),Mass concentration (μg/m³),Mass concentration (μg/m³)
DateTimeUTC,F1_M11,P_M11,Q1_M11,Q2_M11,T1_M11,T2_M11,T3_M11,T4_M11,T5_M11,U1_M11,ZSPAN_M11,X0_M11,X2_M11,X1_M11
2022-07-21 17:00:00,,0829.0,5.00,0.00,29.3,27.4,00.0,38.0,31.1,23.8,0000.0,0016.91,0006.52,0004.98
2022-07-21 17:01:00,,0829.0,5.00,0.00,29.3,27.6,00.0,38.0,31.2,23.1,0000.0,0017.44,0006.50,0004.99
2022-07-21 17:02:00,,0829.0,5.01,0.00,29.3,27.8,00.0,38.0,31.2,22.4,0000.0,0016.90,0006.48,0004.99
2022-07-21 17:03:00,,0828.9,5.01,0.00,29.3,28.0,00.0,38.0,31.3,21.9,0000.0,0016.79,0006.49,0005.00
2022-07-21 17:04:00,,0828.9,4.99,0.00,29.4,27.8,00.0,38.0,31.3,22.3,0000.0,0016.85,0006.42,0005.00
2022-07-21 17:05:00,,0829.1,5.02,0.00,29.3,27.2,00.0,37.9,31.2,23.3,0000.0,0017.39,0006.38,0005.00
2022-07-21 17:06:00,,0829.1,4.99,0.00,29.3,27.1,00.0,37.9,31.2,24.3,0000.0,0017.16,0006.32,0005.01
2022-07-21 17:07:00,,0829.2,5.00,0.00,29.3,27.2,00.0,37.9,31.1,24.2,0000.0,0016.34,0006.28,0005.03
2022-07-21 17:08:00,,0829.0,5.00,0.00,29.3,27.3,00.0,37.9,31.1,24.5,0000.0,0015.20,0006.32,0005.04
2022-07-21 17:09:00,,0829.0,5.00,0.00,29.3,27.5,00.0,38.0,31.1,23.4,0000.0,0015.26,0006.37,0005.07
2022-07-21 17:10:00,,0829.2,5.00,0.00,29.3,27.7,00.0,38.0,31.2,24.0,0000.0,0015.78,0006.45,0005.09
2022-07-21 17:11:00,,0828.9,5.00,0.00,29.3,27.9,00.0,38.0,31.2,24.3,0000.0,0016.20,0006.53,0005.11
2022-07-21 17:12:00,,0829.0,5.00,0.00,29.3,28.0,00.0,38.0,31.3,24.7,0000.0,0015.61,0006.59,0005.15
2022-07-21 17:13:00,,0829.1,5.00,0.00,29.3,27.5,00.0,37.9,31.3,24.5,0000.0,0016.87,0006.69,0005.18
2022-07-21 17:14:00,,0828.9,5.00,0.00,29.3,27.1,00.0,37.9,31.2,24.3,0000.0,0017.47,0006.74,0005.22
2022-07-21 17:15:00,,0829.0,5.00,0.00,29.3,27.1,00.0,37.9,31.1,23.8,0000.0,0018.36,0006.88,0005.25
2022-07-21 17:16:00,,0828.9,5.00,0.00,29.3,27.2,00.0,37.9,31.1,24.3,0000.0,0018.21,0006.92,0005.26
2022-07-21 17:17:00,,0829.1,5.01,0.00,29.2,27.4,00.0,37.9,31.1,23.7,0000.0,0017.83,0006.96,0005.28
2022-07-21 17:18:00,,0829.0,5.00,0.00,29.2,27.6,00.0,37.9,31.1,23.4,0000.0,0018.27,0006.99,0005.28
2022-07-21 17:19:00,,0829.1,4.99,0.00,29.3,27.8,00.0,38.0,31.2,23.1,0000.0,0018.57,0006.98,0005.29
2022-07-21 17:20:00,,0829.1,5.01,0.00,29.3,27.9,00.0,38.0,31.3,23.2,0000.0,0018.68,0006.96,0005.28
2022-07-21 17:21:00,,0828.8,5.00,0.00,29.3,27.4,00.0,37.9,31.2,23.4,0000.0,0018.64,0006.97,0005.29
2022-07-21 17:22:00,,0828.7,5.00,0.00,29.3,27.0,00.0,37.9,31.1,22.5,0000.0,0018.05,0006.92,0005.27
2022-07-21 17:23:00,,0828.8,5.00,0.00,29.2,27.0,00.0,37.9,31.1,22.5,0000.0,0017.98,0006.87,0005.23
2022-07-21 17:24:00,,0828.9,5.00,0.00,29.2,27.1,00.0,37.9,31.0,22.3,0000.0,0017.02,0006.79,0005.20
2022-07-21 17:25:00,,0828.8,5.00,0.00,29.2,27.3,00.0,37.9,31.0,21.9,0000.0,0016.96,0006.68,0005.16
2022-07-21 17:26:00,,0828.8,5.00,0.00,29.2,27.5,00.0,37.9,31.1,21.1,0000.0,0015.77,0006.51,0005.12
2022-07-21 17:27:00,,0829.0,4.99,0.00,29.2,27.7,00.0,37.9,31.1,19.7,0000.0,0015.79,0006.41,0005.06
2022-07-21 17:28:00,,0828.9,5.00,0.00,29.2,27.9,00.0,37.9,31.2,19.2,0000.0,0016.06,0006.36,0004.99
2022-07-21 17:29:00,,0829.0,5.00,0.00,29.3,28.0,00.0,37.9,31.3,19.1,0000.0,0015.41,0006.30,0004.94
2022-07-21 17:30:00,,0829.1,5.00,0.00,29.3,27.6,00.0,37.9,31.2,19.7,0000.0,0015.05,0006.24,0004.89
2022-07-21 17:31:00,,0829.0,4.99,0.00,29.3,27.1,00.0,37.8,31.1,19.6,0000.0,0014.85,0006.19,0004.84
2022-07-21 17:32:00,,0829.1,4.99,0.00,29.2,27.1,00.0,37.8,31.1,19.2,0000.0,0013.78,0006.09,0004.77
2022-07-21 17:33:00,,0829.0,5.00,0.00,29.2,27.2,00.0,37.8,31.0,19.0,0000.0,0013.88,0006.00,0004.73
2022-07-21 17:34:00,,0829.1,4.99,0.00,29.2,27.4,00.0,37.9,31.1,18.9,0000.0,0014.71,0005.97,0004.70
2022-07-21 17:35:00,,0829.0,5.00,0.00,29.2,27.6,00.0,37.9,31.1,19.5,0000.0,0014.44,0005.96,0004.68
2022-07-21 17:36:00,,0829.0,5.00,0.00,29.2,27.8,00.0,37.9,31.2,18.1,0000.0,0015.22,0006.00,0004.66
2022-07-21 17:37:00,,0829.0,4.99,0.00,29.3,27.9,00.0,37.9,31.2,18.8,0000.0,0018.76,0005.98,0004.63
2022-07-21 17:38:00,,0828.9,5.01,0.00,29.3,27.4,00.0,37.9,31.2,18.3,0000.0,0018.46,0005.97,0004.64
2022-07-21 17:39:00,,0828.7,5.00,0.00,29.2,27.0,00.0,37.8,31.1,17.6,0000.0,0018.52,0005.99,0004.64
2022-07-21 17:40:00,,0828.6,5.00,0.00,29.2,27.0,00.0,37.8,31.0,18.3,0000.0,0018.65,0006.01,0004.63
2022-07-21 17:41:00,,0828.5,5.00,0.00,29.2,27.1,00.0,37.8,31.0,18.1,0000.0,0018.36,0005.99,0004.63
2022-07-21 17:42:00,,0828.5,5.01,0.00,29.1,27.3,00.0,37.8,31.0,18.2,0000.0,0018.52,0005.97,0004.63
2022-07-21 17:43:00,,0828.4,5.00,0.00,29.1,27.5,00.0,37.9,31.0,18.8,0000.0,0018.57,0005.99,0004.65
2022-07-21 17:44:00,,0828.5,5.00,0.00,29.2,27.7,00.0,37.9,31.1,17.7,0000.0,0018.58,0006.01,0004.65
2022-07-21 17:45:00,,0828.5,5.00,0.00,29.2,27.9,00.0,37.9,31.2,16.6,0000.0,0018.39,0006.02,0004.64
2022-07-21 17:46:00,,0828.5,5.00,0.00,29.2,27.8,00.0,37.9,31.2,16.6,0000.0,0018.50,0005.96,0004.64
2022-07-21 17:47:00,,0828.5,5.00,0.00,29.2,27.2,00.0,37.8,31.1,16.3,0000.0,0018.49,0005.97,0004.65
2022-07-21 17:48:00,,0828.5,4.99,0.00,29.2,27.0,00.0,37.8,31.1,16.6,0000.0,0015.20,0006.01,0004.65
2022-07-21 17:49:00,,0828.5,5.00,0.00,29.2,27.1,00.0,37.8,31.0,17.0,0000.0,0014.80,0005.99,0004.65
2022-07-21 17:50:00,,0828.4,5.00,0.00,29.1,27.2,00.0,37.8,31.0,17.9,0000.0,0014.96,0005.96,0004.66
2022-07-21 17:51:00,,0828.4,5.00,0.00,29.1,27.4,00.0,37.8,31.0,17.6,0000.0,0015.27,0005.97,0004.67
2022-07-21 17:52:00,,0828.4,5.01,0.00,29.1,27.6,00.0,37.8,31.1,17.9,0000.0,0015.45,0005.94,0004.67
2022-07-21 17:53:00,,0828.4,4.99,0.00,29.2,27.8,00.0,37.9,31.1,18.3,0000.0,0015.48,0005.97,0004.69
2022-07-21 17:54:00,,0828.4,4.99,0.00,29.2,27.9,00.0,37.9,31.2,18.0,0000.0,0015.40,0005.96,0004.70
2022-07-21 17:55:00,,0828.3,5.00,0.00,29.2,27.5,00.0,37.8,31.2,17.7,0000.0,0015.20,0006.01,0004.74
2022-07-21 17:56:00,,0828.3,5.01,0.00,29.2,27.0,00.0,37.8,31.1,18.4,0000.0,0014.76,0006.11,0004.79
2022-07-21 17:57:00,,0828.3,4.99,0.00,29.2,27.0,00.0,37.8,31.0,18.2,0000.0,0014.82,0006.22,0004.84
2022-07-21 17:58:00,,0828.3,5.00,0.00,29.1,27.1,00.0,37.8,31.0,18.5,0000.0,0013.92,0006.30,0004.89
2022-07-21 17:59:00,,0828.3,5.01,0.00,29.1,27.3,00.0,37.8,31.0,18.5,0000.0,0014.56,0006.33,0004.95
